Showing default

ICO G-1, 32763

Orbit data source: Space-Track

ICO G-1, 32763 is a payload satellite owned by ICO North America (US) in GEO that was launched on Mon, 14 Apr 2008 UTC via an ATLAS V 421 launch vehicle from the Air Force Eastern Test Range (AFETR). Payload-class satellites include a variety of spacecraft equipped with specific instruments for various scientific and technological missions. These include communications satellites like Starlink; space stations such as the ISS; scientific satellites like the Hubble; Earth observation satellites from companies like Planet Labs, Umbra, and HawkEye 360; GPS; miniature CubeSats for education and research; and military/defense satellites.

Loading next visibility...
Identifier
32763, 2008-016A
Orbit
GEO
Country
Flag of USUS
Related business
Manufacturer
SS/Loral
Mission
Operational Commercial Communications
Bus & Motor
SSL-1300, R-4D-15-300
Mass
6,600 kg wet, ~3,000 kg dry
Launch date (UTC)
2008-04-14 (18 years ago)
Launch vehicle
ATLAS V 421
Launch site
Air Force Eastern Test Range (AFETR)
Object type
Payload
Rocket body
Debris
Shape & HBR
Box + 2 Pan, 15.0 m
Radar Cross Section
50.806 m², Large (>1 m²)

Expand to show TLE details & history
Last TLE update: 23 hours ago

TLE from 23 hours ago
0 ICO G-1
1 32763U 08016A   25351.67914308 -.00000152  00000-0  00000-0 0  9999
2 32763   5.4839  36.5022 0002134 220.0075 341.6716  1.00271249 64729
Epoch: 2025-12-17T16:17Z
TLE epoch observation values (Epoch: 2025-12-17T16:17:57.962Z)
Latitude
-2.04443°
Longitude
-92.95948°
Altitude
35,777.955 km
Speed
3.075 km/s
True Right ascension
15h 52m 18s
True Declination
-2° 02' 33"
Sunlit
Object was in daylight at epoch
Visualization orbit readout
Latitude
Unknown
Longitude
Unknown
Altitude
Unknown
Speed
Unknown
Apparent Right ascension
Unknown
Apparent Declination
Unknown
Sunlit
N/A
Visualization observer readout
Local Sidereal Time
13:57:51
Azimuth
Unknown
Elevation
Unknown
Doppler factor
Unknown
Orbital elements
Apogee altitude
35,796.8 km
Perigee altitude
35,778.803 km
Semi-major axis
42,165.938 km
Eccentricity
0.00021
Inclination
5.4839°
RAAN
36.5022°
Arg. of periapsis
220.0075°
True anomaly
341.66391°
Mean anomaly
341.6716°
Eccentric anomaly
341.66775°
Mean motion
0.25067 °/min
Orbital period
1,436.16 mins
BSTAR
0
Loading maneuver chart data...
Computing Atmospheric mass density...
Loading historical data...
Loading historical data...
Loading historical data...
Loading historical data...
Loading historical data...
Loading historical data...
Loading historical data...
Other satellites on launch #16 in the year 2008 (2008-04-14 UTC)

Documentation

Showing up to 5 results
|